Dewpoint
1 5 9 10 9 7 6 7 5 5 5 8 8 10 9 8 7 8 7 8 9 9 10 11 11 11 12 14 15 15 16 15 16 16 16 16 15 16 15 15 16 16 17 16
1 5 4 5 6 4 4 8 7 4 6 7 6 10 9 8 8 8 8 8 9 9 10 11 11 11 12 13 14 16 16 16 16 15 16 16 16 16 16 15 17 16 16 17
2 4 1 0 -1 2 5 6 3 7 5 5 5 8 9 8 8 8 8 9 9 9 10 10 11 11 12 12 14 15 16 16 15 16 15 16 16 16 16 15 16 14 16 17
0 1 1 -1 1 1 4 -0 1 4 8 9 5 10 10 9 9 8 7 7 8 8 10 10 10 11 11 12 13 14 15 16 13 17 16 15 16 15 16 16 16 17 17 16
0 2 1 0 1 -2 1 -3 3 7 9 8 6 5 9 8 8 8 7 7 6 7 8 9 9 10 10 11 12 14 14 14 15 13 16 16 15 16 15 16 15 16 16 15
-1 -1 -1 -2 -1 -2 -2 5 10 12 9 8 7 11 9 8 6 5 5 5 6 5 6 8 9 9 10 10 11 13 14 15 13 15 16 17 17 16 16 16 16 16 17 17
-1 -1 -3 -2 -1 -3 4 10 13 12 11 10 10 11 4 3 3 3 4 4 4 3 4 6 7 9 10 10 11 12 14 14 13 13 12 14 16 15 14 16 16 15 16 16
1 2 -2 -2 -2 -0 7 11 13 14 7 6 5 4 2 -0 1 1 2 3 3 3 4 4 6 8 10 11 11 12 14 14 13 12 13 13 14 15 15 16 16 16 16 16
-0 1 -4 -3 -4 -2 9 14 8 12 8 5 3 3 0 -0 0 0 0 1 1 0 0 2 6 8 11 11 12 13 13 14 14 11 11 14 14 14 17 17 17 16 16 16
-3 -0 -4 -4 -4 -2 0 3 5 5 9 9 5 4 4 4 2 0 -0 1 0 0 1 3 6 8 11 12 13 14 14 14 14 17 15 13 15 14 13 16 17 16 17 17
-7 -5 -2 -4 -2 0 2 3 2 3 5 5 7 6 3 5 1 0 1 1 2 1 2 5 7 8 9 11 12 14 14 15 17 17 16 16 17 18 17 17 17 18 17 16
-8 -6 -0 -3 -3 -2 -1 0 -0 3 8 4 1 2 -3 -3 -2 -0 0 -0 2 4 5 6 7 9 11 12 12 14 15 15 16 16 16 16 16 17 17 17 17 17 17 17
-7 -4 -0 -1 -2 -1 1 -0 5 7 7 6 5 2 -2 -1 -2 -1 1 4 5 6 7 9 10 11 11 12 12 12 14 14 14 15 16 16 16 16 16 17 17 17 17 17
-6 -5 -0 1 -1 1 1 -3 4 7 7 6 3 2 0 -0 -0 0 2 4 6 8 10 10 12 14 14 16 15 15 16 15 14 14 15 16 16 16 16 16 16 16 17 17
-10 -4 1 3 -3 -5 -4 -4 -2 3 2 -0 -1 1 0 1 2 4 5 7 9 11 12 15 16 16 16 17 18 18 18 18 17 17 16 17 17 17 17 17 17 17 17 17
-11 -2 6 7 -3 -4 -3 -4 -4 -4 -4 -4 -4 2 1 4 4 7 9 11 14 15 15 16 16 16 17 17 18 18 19 19 19 19 18 18 18 18 18 18 17 18 18 17
-10 -6 -0 6 -2 -4 -2 -3 -5 -5 -7 -7 0 6 5 6 8 11 13 14 14 14 15 16 16 17 17 18 19 19 19 20 19 19 19 19 18 19 18 18 18 17 17 17
-7 -2 0 2 4 2 -4 -7 -6 -6 -7 -6 5 7 8 9 10 11 12 13 14 15 15 15 16 18 18 18 17 14 15 17 17 17 16 16 16 16 16 16 15 14 13 15
-10 -5 1 3 1 -0 -3 -5 -5 -5 -3 -5 2 8 9 11 12 13 14 14 14 14 14 15 16 17 16 17 17 18 15 14 14 15 14 14 13 13 14 12 9 9 8 9
-11 -6 -0 2 2 4 0 -4 -4 -5 -0 -2 -1 8 9 10 13 14 14 14 14 14 14 15 16 16 16 16 15 15 15 15 15 14 14 14 13 14 13 11 7 9 14 14
-1 0 2 1 1 -1 -4 -3 -2 2 1 1 1 6 8 13 13 13 14 14 15 15 15 16 16 16 16 15 15 15 14 15 14 14 14 13 13 14 12 9 10 12 13 13
4 0 -1 2 2 2 -4 -3 2 1 -2 -0 4 7 14 14 13 13 14 14 14 15 16 16 15 16 15 15 14 15 14 14 14 14 14 13 13 13 12 7 9 10 9 11
1 -1 -1 -5 -3 5 0 -0 -2 -1 2 4 5 11 12 12 13 13 13 13 13 14 15 15 15 15 15 15 14 15 14 13 14 14 13 12 6 11 10 9 11 11 10 10
1 -3 -1 2 -2 0 1 -1 -3 2 3 3 5 9 10 12 13 13 13 12 13 13 13 14 15 15 15 15 13 14 14 14 14 13 12 11 6 5 5 6 6 6 8 10
-2 1 2 2 3 2 -1 -2 -2 1 2 1 4 7 10 12 12 13 12 12 12 13 14 15 14 14 15 14 14 14 13 12 13 12 12 12 10 11 10 8 8 8 7 8
-0 3 0 2 5 6 3 -0 -2 1 2 5 6 6 11 12 12 13 13 13 13 15 14 14 14 15 14 13 14 14 13 12 12 11 11 11 12 11 12 11 10 10 9 9
Wind_Speed
18 10 7 16 25 20 12 24 10 13 11 11 10 16 15 16 17 16 16 16 13 16 14 14 14 14 13 13 13 13 13 13 11 5 11 7 5 7 5 4 5 6 6 12
16 10 14 21 28 16 18 14 6 12 14 8 7 19 17 16 14 18 15 18 13 16 19 18 15 17 16 16 15 15 14 12 14 8 9 10 9 6 9 3 10 12 9 6
14 5 11 11 9 8 9 15 4 13 8 13 11 11 14 15 15 17 13 19 17 14 15 18 18 17 19 21 19 17 17 14 13 11 9 8 6 4 8 9 9 5 6 9
13 10 7 7 10 9 7 5 5 1 14 11 13 9 11 13 12 11 16 15 20 19 19 17 19 17 19 21 20 20 19 20 14 16 8 6 6 6 8 6 8 6 7 5
18 12 9 8 4 4 1 3 18 17 18 3 12 9 10 12 11 13 12 16 15 23 23 21 16 21 16 21 22 22 21 19 17 14 14 12 11 6 5 7 8 8 11 11
21 17 8 11 0 4 10 18 34 18 9 4 11 9 12 12 13 12 14 11 14 12 17 22 19 16 16 16 20 22 21 19 21 17 20 15 11 12 9 9 10 8 8 10
18 16 10 10 6 8 16 16 4 6 3 11 24 10 10 14 15 13 16 12 8 6 9 12 13 17 14 15 16 20 20 19 22 23 19 19 16 15 16 14 13 9 10 11
12 13 12 10 13 2 7 10 5 5 6 16 11 12 12 14 16 18 14 11 8 13 12 12 9 15 16 16 17 19 20 20 22 25 22 17 16 16 14 13 9 10 10 8
17 15 16 17 11 12 8 5 29 19 23 7 15 20 14 14 14 11 18 14 13 13 12 12 10 13 16 17 19 20 21 19 20 21 25 22 18 15 14 14 16 15 14 16
12 11 17 16 15 5 8 5 7 5 6 3 15 13 11 13 12 13 9 16 20 14 13 10 12 13 15 16 18 18 21 20 15 20 20 23 23 21 17 20 18 15 11 12
23 13 12 14 10 13 6 10 2 5 4 6 13 10 10 12 13 11 12 15 18 15 12 10 12 12 13 15 19 19 19 18 17 17 21 18 19 19 17 16 22 20 21 21
22 9 13 15 14 16 12 13 16 3 4 6 13 11 14 10 8 14 12 11 13 13 12 11 10 10 10 10 14 14 15 14 14 15 15 22 20 19 19 22 16 22 22 20
19 10 9 15 14 14 7 5 14 10 5 10 8 9 13 12 9 6 16 12 5 9 8 12 11 8 6 8 8 12 12 13 15 14 17 17 20 21 22 20 24 18 21 21
21 17 9 12 16 14 12 10 17 9 4 5 18 18 17 15 13 12 11 8 8 4 9 4 15 13 5 5 4 5 3 6 11 12 15 18 20 19 20 20 21 23 21 21
18 18 13 21 15 14 14 15 11 22 17 9 13 19 17 13 13 16 12 12 12 13 15 16 17 14 10 6 4 2 5 6 6 4 10 11 15 17 18 20 19 23 23 20
19 17 20 24 8 2 15 11 10 5 3 8 15 20 18 18 19 20 17 17 17 16 16 15 15 14 10 8 6 5 2 1 6 9 14 14 13 13 15 18 21 18 19 22
20 16 14 11 10 6 5 7 12 9 5 0 7 20 17 14 18 23 20 17 17 16 15 13 12 11 11 8 6 2 2 4 7 8 9 13 13 12 14 18 18 17 17 19
18 18 12 9 14 10 8 9 5 6 10 4 16 16 18 18 21 22 20 18 17 15 13 12 11 10 9 10 6 6 7 3 2 3 3 5 6 8 10 11 11 13 14 14
19 16 10 8 10 9 13 13 15 10 10 3 13 20 23 24 23 20 17 16 16 15 13 13 12 11 12 11 12 13 12 11 10 10 8 8 9 12 12 13 16 17 18 19
22 18 12 9 11 13 13 11 1 6 6 12 11 19 24 23 11 11 17 17 17 15 15 14 13 12 13 13 12 12 11 11 12 11 13 12 10 9 13 18 19 19 15 17
11 14 15 12 10 11 6 19 19 13 6 19 19 22 23 7 19 25 19 17 16 16 16 15 13 13 13 12 10 9 10 12 11 10 10 11 10 10 11 19 22 18 13 12
12 9 10 12 9 12 2 14 18 6 1 15 22 22 30 30 26 22 20 18 17 16 14 12 14 14 12 9 5 10 11 8 7 8 7 8 7 9 14 20 23 25 26 26
14 11 9 7 10 11 17 16 14 12 13 19 23 32 31 28 23 21 19 18 16 15 15 13 13 12 10 9 6 10 10 7 5 6 8 8 10 8 13 15 15 18 23 22
14 23 10 11 11 12 20 16 13 20 20 17 22 28 27 26 23 21 19 18 16 15 14 12 11 12 11 8 8 10 8 8 7 7 8 9 11 12 11 11 16 19 17 16
12 15 14 13 10 15 18 23 17 21 23 21 21 25 28 26 23 21 21 19 17 16 13 11 11 11 10 8 10 7 7 8 4 4 8 6 8 12 13 13 15 15 15 15
8 12 10 6 9 4 16 20 17 23 25 25 26 25 27 27 25 23 22 20 18 16 14 13 12 11 11 7 7 7 5 6 5 7 6 4 3 5 5 8 9 12 11 10
Wind_Direction
230 99 204 251 217 225 1 7 81 115 148 189 168 147 162 172 167 163 175 168 186 172 184 181 185 176 173 170 170 175 171 188 172 195 185 213 195 200 183 191 194 209 225 253
245 170 241 227 214 87 109 218 234 105 146 200 179 146 159 174 190 160 195 166 194 192 175 185 193 192 185 186 192 186 185 204 164 166 211 211 190 213 213 232 194 229 208 226
241 140 217 224 178 59 207 234 117 134 167 165 126 126 146 170 188 172 193 174 182 193 196 181 199 200 190 195 195 207 192 218 171 185 191 212 163 181 158 199 253 251 204 227
246 212 227 214 131 149 238 269 226 171 182 167 181 125 131 162 191 194 195 200 189 193 186 200 194 202 204 198 197 208 220 210 202 179 192 191 175 194 211 226 247 234 266 237
238 185 205 236 210 324 271 294 10 54 293 232 173 127 147 161 182 181 209 214 214 193 192 190 201 195 203 198 199 204 224 225 201 204 188 216 203 223 245 225 252 232 250 275
250 179 182 224 246 226 16 30 72 313 343 182 93 43 165 175 165 162 170 215 213 196 195 188 186 178 186 191 191 200 216 230 201 208 190 199 214 213 217 227 236 241 270 294
236 249 195 231 247 193 83 60 38 209 250 122 133 187 95 130 137 146 147 169 163 161 164 155 172 167 179 180 185 197 218 228 216 211 205 210 210 227 224 229 240 246 265 254
212 224 184 200 253 8 81 96 169 254 217 111 120 127 119 105 107 125 142 135 149 180 153 138 156 171 177 184 189 195 218 225 220 215 218 223 226 235 243 245 250 243 263 283
199 225 191 215 202 249 129 71 233 223 259 169 103 105 113 124 136 156 125 141 121 82 96 125 153 171 180 188 194 196 217 232 222 217 216 221 229 228 225 231 248 253 247 227
208 205 216 196 210 219 302 263 300 204 94 166 122 134 126 156 152 130 157 129 126 131 132 148 158 170 180 190 198 198 213 228 222 211 227 224 230 239 226 224 231 247 241 246
251 248 176 181 194 219 182 227 208 212 11 277 138 110 113 135 146 162 152 141 127 130 131 155 158 163 174 186 197 201 210 218 215 213 218 231 236 236 251 243 224 235 235 243
239 250 180 196 194 243 257 300 207 158 324 294 104 118 132 145 104 99 98 96 94 123 133 135 135 153 162 178 194 201 210 216 223 227 223 231 237 235 239 252 250 239 247 242
227 249 213 183 196 215 240 86 98 69 50 282 117 128 106 96 98 71 87 88 106 118 132 135 133 120 147 167 198 204 204 223 232 229 232 236 237 244 244 252 253 243 247 247
227 248 234 189 209 174 194 252 125 113 261 253 123 136 139 132 125 112 99 109 109 84 114 77 112 113 115 77 142 210 190 234 229 236 237 238 244 245 249 255 251 259 240 248
215 237 238 300 181 187 176 216 192 170 173 44 134 149 142 135 112 106 101 103 105 86 90 67 66 75 73 52 30 330 272 275 243 277 253 268 252 251 250 250 267 248 246 239
211 234 131 256 269 149 174 173 189 221 1 100 123 115 114 122 129 114 106 98 87 81 79 76 71 68 66 68 56 63 86 209 228 231 231 240 245 239 245 248 246 257 258 254
212 222 230 203 220 197 228 188 170 182 116 82 59 116 117 127 118 111 111 111 106 101 95 90 82 75 77 71 95 85 158 202 223 242 267 273 276 287 289 282 289 279 274 268
209 214 236 218 212 188 206 239 202 185 152 175 119 117 109 108 112 112 117 119 115 110 102 93 85 80 72 69 56 63 68 73 307 306 306 313 320 322 322 324 323 314 310 295
207 206 233 228 236 209 203 212 201 208 135 110 110 115 120 109 107 102 115 119 117 110 104 99 96 86 80 75 71 65 65 63 57 56 47 28 17 14 1 344 336 327 318 302
203 202 223 232 232 232 199 162 141 136 214 160 151 129 135 154 140 129 129 122 113 110 106 104 99 93 84 75 73 63 57 49 47 43 51 40 39 10 349 347 341 332 339 336
227 197 210 198 236 251 217 176 184 211 208 158 155 145 161 111 121 133 129 120 117 113 108 108 103 95 91 81 74 80 64 56 51 61 42 28 36 8 0 18 16 10 2 358
233 224 205 210 197 235 150 185 167 145 251 172 139 139 112 118 125 130 129 126 122 119 112 107 103 101 101 80 61 70 66 69 52 38 16 11 20 51 18 27 38 44 42 43
215 234 225 227 216 131 131 139 157 171 149 137 143 126 130 128 132 132 129 127 124 122 120 116 109 96 82 81 77 67 68 60 61 35 29 42 45 69 56 25 42 34 30 39
193 215 219 236 228 207 160 159 170 137 143 154 152 135 137 137 141 138 134 130 127 125 123 120 119 105 105 102 69 79 72 67 46 65 43 31 62 67 54 56 50 50 59 49
187 188 217 227 215 149 166 156 162 148 153 163 151 144 146 147 146 144 137 135 134 131 130 132 122 113 105 108 103 80 50 55 97 101 90 50 39 35 21 34 40 36 39 43
242 167 194 180 122 293 168 153 162 158 157 152 148 150 146 147 144 143 140 141 140 139 132 130 121 116 106 93 82 70 90 90 71 68 56 76 25 83 5 345 17 25 20 20
Height
1465 1476 1496 1488 1484 1474 1461 1461 1463 1463 1466 1472 1474 1483 1489 1494 1497 1503 1507 1512 1515 1519 1524 1527 1530 1532 1536 1538 1541 1543 1544 1545 1548 1548 1549 1548 1550 1551 1553 1554 1556 1556 1557 1558
1465 1475 1461 1465 1465 1466 1473 1482 1473 1464 1464 1468 1470 1478 1483 1490 1493 1499 1503 1508 1513 1515 1519 1524 1528 1530 1533 1537 1539 1541 1543 1544 1546 1548 1548 1548 1549 1551 1551 1553 1555 1556 1557 1557
1466 1470 1453 1453 1454 1464 1471 1474 1463 1469 1463 1460 1467 1481 1483 1487 1491 1494 1499 1503 1508 1512 1515 1519 1523 1526 1529 1532 1536 1538 1541 1542 1544 1547 1549 1548 1550 1552 1553 1554 1555 1555 1556 1557
1455 1454 1453 1454 1458 1459 1474 1454 1456 1456 1465 1484 1460 1507 1488 1487 1489 1491 1494 1498 1500 1504 1509 1513 1516 1521 1525 1527 1531 1535 1538 1540 1542 1544 1548 1548 1550 1552 1553 1554 1553 1554 1554 1556
1454 1453 1455 1457 1457 1450 1460 1455 1458 1467 1486 1466 1470 1485 1492 1485 1490 1488 1491 1491 1493 1497 1501 1506 1510 1514 1520 1523 1526 1530 1534 1537 1540 1542 1545 1547 1549 1551 1552 1552 1553 1555 1554 1553
1444 1441 1446 1450 1447 1453 1454 1468 1494 1502 1499 1493 1488 1517 1492 1485 1481 1481 1485 1488 1489 1490 1494 1500 1505 1510 1516 1520 1524 1527 1529 1533 1537 1539 1542 1544 1547 1548 1550 1551 1551 1552 1552 1551
1448 1444 1443 1446 1455 1450 1465 1492 1522 1526 1516 1507 1494 1518 1482 1469 1470 1475 1481 1485 1488 1490 1492 1498 1504 1508 1514 1518 1523 1525 1527 1531 1534 1537 1540 1541 1544 1545 1547 1548 1549 1550 1551 1549
1464 1472 1447 1446 1453 1459 1477 1499 1531 1544 1496 1491 1470 1492 1483 1468 1470 1474 1479 1482 1485 1487 1492 1496 1502 1506 1511 1515 1520 1524 1524 1527 1529 1533 1536 1539 1541 1542 1543 1545 1546 1547 1549 1550
1455 1462 1438 1441 1448 1450 1496 1522 1481 1520 1497 1490 1473 1471 1467 1468 1471 1473 1477 1481 1485 1489 1493 1498 1502 1506 1509 1513 1517 1521 1522 1524 1527 1529 1532 1535 1537 1539 1540 1542 1543 1544 1545 1546
1433 1459 1434 1439 1442 1444 1450 1452 1467 1467 1508 1512 1482 1481 1486 1473 1471 1472 1475 1479 1484 1491 1494 1498 1501 1504 1508 1512 1515 1519 1520 1522 1524 1527 1529 1531 1533 1535 1537 1538 1539 1540 1541 1542
1429 1434 1438 1436 1447 1452 1455 1456 1455 1458 1477 1490 1494 1492 1464 1466 1467 1471 1472 1476 1483 1489 1494 1498 1501 1504 1508 1511 1513 1516 1519 1521 1523 1526 1529 1530 1531 1532 1533 1534 1536 1537 1537 1538
1429 1428 1445 1445 1434 1434 1435 1441 1440 1466 1492 1464 1464 1485 1459 1463 1465 1470 1476 1479 1484 1489 1495 1499 1503 1506 1509 1512 1515 1518 1521 1523 1525 1527 1528 1529 1530 1530 1531 1530 1532 1534 1535 1535
1427 1437 1451 1450 1443 1435 1444 1442 1458 1469 1474 1481 1498 1488 1460 1468 1472 1475 1477 1485 1489 1491 1495 1499 1503 1507 1510 1512 1515 1516 1518 1522 1523 1523 1525 1527 1528 1528 1530 1530 1527 1528 1531 1533
1429 1429 1438 1453 1445 1435 1452 1446 1449 1475 1488 1473 1464 1473 1467 1469 1473 1477 1483 1487 1492 1494 1498 1500 1502 1507 1510 1512 1513 1515 1518 1519 1520 1522 1522 1522 1523 1525 1525 1526 1527 1527 1526 1526
1431 1444 1435 1441 1424 1429 1438 1443 1442 1462 1461 1465 1462 1464 1464 1467 1473 1480 1487 1491 1495 1498 1501 1504 1507 1510 1513 1514 1516 1516 1516 1516 1518 1519 1520 1521 1520 1520 1521 1523 1523 1521 1520 1520
1429 1443 1451 1461 1425 1424 1435 1437 1440 1444 1444 1447 1448 1462 1460 1469 1475 1481 1491 1496 1501 1505 1508 1510 1512 1514 1515 1517 1518 1517 1517 1516 1515 1515 1515 1516 1514 1515 1515 1516 1516 1517 1515 1515
1431 1434 1442 1458 1433 1435 1453 1437 1440 1443 1444 1447 1463 1462 1465 1473 1476 1482 1494 1502 1507 1510 1513 1514 1516 1517 1518 1517 1517 1515 1515 1514 1513 1513 1513 1513 1514 1514 1515 1514 1511 1512 1511 1510
1428 1433 1433 1445 1448 1477 1440 1428 1431 1441 1444 1445 1453 1462 1469 1477 1483 1490 1498 1505 1509 1512 1515 1517 1518 1518 1517 1517 1515 1515 1514 1514 1513 1514 1514 1514 1513 1513 1513 1512 1511 1510 1509 1509
1419 1428 1441 1449 1453 1442 1437 1432 1436 1445 1451 1447 1453 1463 1474 1484 1492 1498 1503 1507 1511 1514 1516 1518 1519 1518 1518 1518 1517 1517 1515 1515 1515 1515 1515 1515 1514 1514 1513 1511 1509 1508 1506 1504
1415 1420 1434 1442 1459 1468 1436 1427 1433 1437 1464 1447 1456 1464 1475 1486 1493 1502 1506 1509 1512 1514 1516 1518 1519 1520 1519 1520 1519 1519 1519 1518 1518 1517 1517 1517 1517 1516 1515 1512 1508 1505 1502 1499
1424 1423 1436 1443 1453 1440 1420 1426 1434 1465 1463 1446 1453 1463 1472 1481 1486 1499 1506 1510 1513 1515 1516 1518 1519 1520 1521 1522 1522 1521 1521 1520 1520 1520 1520 1519 1518 1517 1516 1512 1507 1503 1500 1498
1430 1434 1433 1437 1450 1462 1420 1417 1441 1442 1443 1447 1454 1464 1475 1484 1494 1500 1506 1510 1513 1515 1517 1518 1519 1521 1523 1524 1523 1522 1522 1523 1523 1523 1521 1520 1519 1518 1516 1513 1510 1507 1503 1499
1433 1422 1429 1428 1433 1423 1426 1431 1436 1441 1446 1451 1459 1468 1477 1485 1494 1501 1506 1510 1513 1516 1518 1520 1521 1522 1524 1524 1523 1523 1524 1524 1524 1523 1522 1521 1520 1519 1518 1516 1513 1511 1507 1504
1412 1417 1421 1425 1419 1421 1426 1432 1437 1441 1447 1454 1460 1468 1477 1486 1495 1500 1505 1510 1513 1517 1519 1521 1522 1523 1524 1525 1525 1525 1525 1525 1525 1525 1524 1523 1522 1521 1520 1518 1516 1514 1511 1510
1406 1412 1418 1421 1420 1422 1427 1431 1437 1442 1448 1454 1462 1468 1477 1486 1494 1499 1504 1509 1513 1516 1519 1520 1521 1522 1523 1525 1526 1527 1527 1526 1527 1527 1527 1526 1524 1523 1522 1521 1518 1516 1515 1514
1406 1408 1417 1421 1421 1423 1427 1431 1437 1443 1447 1454 1462 1470 1478 1485 1492 1499 1504 1508 1512 1515 1517 1519 1521 1523 1525 1527 1527 1528 1527 1528 1528 1528 1528 1528 1527 1526 1524 1522 1521 1519 1517 1516